SWR8J LIBD-LDSP

Flight info

Callsign SWR8J
Flight time 0h 21m
Altitude 19000
Route BANAV/N0373F180 DCT AIOSA DCT ORAKA
Aircraft A321/M-SDE3FGHIRWY/LB1

Departure

Time 2026-04-25 14:43
Airport Bari Karol Wojtyła International Airport (LIBD)

Arrival

Time 2026-04-25 15:04
Airport Split Saint Jerome Airport (LDSP)
Time Latitude Longitude Altitude Speed Heading
2026-04-25 14:34 41.13873 16.77183 127 ft 0 kts 337°
2026-04-25 14:37 41.13878 16.77180 127 ft 2 kts 336°
2026-04-25 14:37 41.13881 16.77172 127 ft 0 kts 258°
2026-04-25 14:37 41.13873 16.77150 128 ft 4 kts 241°
2026-04-25 14:37 41.13848 16.77099 130 ft 8 kts 233°
2026-04-25 14:38 41.13814 16.77023 132 ft 9 kts 249°
2026-04-25 14:38 41.13785 16.76936 133 ft 12 kts 246°
2026-04-25 14:38 41.13779 16.76815 135 ft 15 kts 299°
2026-04-25 14:38 41.13845 16.76695 135 ft 17 kts 263°
2026-04-25 14:39 41.13797 16.76524 139 ft 22 kts 249°
2026-04-25 14:39 41.13735 16.76306 143 ft 27 kts 250°
2026-04-25 14:39 41.13663 16.76048 148 ft 32 kts 250°
2026-04-25 14:39 41.13580 16.75759 155 ft 35 kts 250°
2026-04-25 14:40 41.13490 16.75440 160 ft 38 kts 249°
2026-04-25 14:40 41.13401 16.75128 169 ft 33 kts 250°
2026-04-25 14:40 41.13326 16.74864 177 ft 28 kts 250°
2026-04-25 14:40 41.13264 16.74641 185 ft 23 kts 249°
2026-04-25 14:41 41.13210 16.74450 191 ft 20 kts 250°
2026-04-25 14:41 41.13170 16.74296 195 ft 16 kts 259°
2026-04-25 14:41 41.13213 16.74180 197 ft 14 kts 326°
2026-04-25 14:41 41.13292 16.74149 197 ft 12 kts 37°
2026-04-25 14:42 41.13369 16.74357 190 ft 55 kts 70°
2026-04-25 14:42 41.13502 16.74817 178 ft 103 kts 70°
2026-04-25 14:42 41.13950 16.76435 232 ft 168 kts 69°
2026-04-25 14:42 41.14351 16.77902 605 ft 171 kts 69°
2026-04-25 14:43 41.14920 16.79249 996 ft 174 kts 38°
2026-04-25 14:43 41.16090 16.79673 1258 ft 184 kts 351°
2026-04-25 14:43 41.17372 16.79241 1562 ft 198 kts 343°
2026-04-25 14:43 41.18755 16.78703 1844 ft 216 kts 344°
2026-04-25 14:44 41.20275 16.78179 2144 ft 235 kts 346°
2026-04-25 14:44 41.21878 16.77683 2731 ft 241 kts 347°
2026-04-25 14:44 41.23508 16.77214 3449 ft 242 kts 348°
2026-04-25 14:44 41.25182 16.76752 4047 ft 250 kts 348°
2026-04-25 14:45 41.38236 16.73268 7902 ft 263 kts 349°
2026-04-25 14:45 41.40066 16.72819 7554 ft 271 kts 349°
2026-04-25 14:45 41.41911 16.72369 7247 ft 267 kts 349°
2026-04-25 14:45 41.43739 16.71918 7122 ft 265 kts 349°
2026-04-25 14:46 41.45544 16.71466 7059 ft 266 kts 349°
2026-04-25 14:46 41.47371 16.71004 7043 ft 266 kts 349°
2026-04-25 14:46 41.49191 16.70543 7041 ft 266 kts 349°
2026-04-25 14:46 41.51009 16.70080 7031 ft 266 kts 349°
2026-04-25 14:47 41.52832 16.69614 7030 ft 266 kts 349°
2026-04-25 14:47 41.54035 16.69306 7030 ft 266 kts 349°
2026-04-25 14:47 41.56469 16.68681 7034 ft 266 kts 349°
2026-04-25 14:47 41.58270 16.68217 7033 ft 266 kts 349°
2026-04-25 14:48 41.60095 16.67747 7035 ft 266 kts 349°
2026-04-25 14:48 41.72178 16.64630 7039 ft 266 kts 349°
2026-04-25 14:48 42.00962 16.57145 7086 ft 266 kts 349°
2026-04-25 14:48 42.30516 16.49384 7061 ft 267 kts 349°
2026-04-25 14:49 42.43704 16.45899 7003 ft 267 kts 349°
2026-04-25 14:49 42.69779 16.38971 4821 ft 262 kts 350°
2026-04-25 14:49 42.86172 16.34606 2875 ft 256 kts 348°
2026-04-25 14:49 42.87936 16.34127 2965 ft 258 kts 348°
2026-04-25 14:50 42.89702 16.33647 3001 ft 258 kts 348°
2026-04-25 14:50 42.91445 16.33174 3016 ft 258 kts 348°
2026-04-25 14:50 42.93209 16.32698 3023 ft 258 kts 348°
2026-04-25 14:50 42.94991 16.32216 3023 ft 258 kts 348°
2026-04-25 14:51 42.96749 16.31742 3024 ft 259 kts 348°
2026-04-25 14:51 42.98531 16.31262 3026 ft 259 kts 348°
2026-04-25 14:51 43.00297 16.30785 3030 ft 259 kts 348°
2026-04-25 14:51 43.02077 16.30305 3029 ft 259 kts 348°
2026-04-25 14:52 43.03840 16.29829 3026 ft 259 kts 348°
2026-04-25 14:52 43.05613 16.29350 3021 ft 259 kts 348°
2026-04-25 14:52 43.07384 16.28871 3023 ft 259 kts 348°
2026-04-25 14:52 43.08556 16.28554 3024 ft 260 kts 348°
2026-04-25 14:53 43.10930 16.27911 3029 ft 260 kts 348°
2026-04-25 14:53 43.12700 16.27432 3022 ft 260 kts 348°
2026-04-25 14:53 43.14474 16.26952 3017 ft 260 kts 348°
2026-04-25 14:53 43.16244 16.26473 3019 ft 260 kts 348°
2026-04-25 14:54 43.18024 16.25990 3020 ft 261 kts 348°
2026-04-25 14:54 43.19809 16.25506 3026 ft 261 kts 348°
2026-04-25 14:54 43.21601 16.25020 3018 ft 261 kts 348°
2026-04-25 14:54 43.23365 16.24540 3017 ft 261 kts 348°
2026-04-25 14:55 43.25171 16.24049 3017 ft 261 kts 348°
2026-04-25 14:55 43.26931 16.23570 3021 ft 261 kts 348°
2026-04-25 14:55 43.28737 16.23077 3020 ft 261 kts 348°
2026-04-25 14:55 43.30515 16.22593 3018 ft 261 kts 348°
2026-04-25 14:56 43.32304 16.22105 3024 ft 261 kts 348°
2026-04-25 14:56 43.34105 16.21983 3000 ft 260 kts 12°
2026-04-25 14:56 43.35700 16.23078 3014 ft 261 kts 39°
2026-04-25 14:56 43.37006 16.24708 3016 ft 248 kts 41°
2026-04-25 14:57 43.38228 16.26244 2988 ft 224 kts 41°
2026-04-25 14:57 43.39375 16.27665 3071 ft 220 kts 41°
2026-04-25 14:57 43.40505 16.29051 3073 ft 210 kts 41°
2026-04-25 14:57 43.41511 16.30281 3090 ft 181 kts 40°
2026-04-25 14:58 43.42411 16.31329 3017 ft 158 kts 37°
2026-04-25 14:58 43.43263 16.32249 2884 ft 155 kts 35°
2026-04-25 14:58 43.44112 16.33142 2800 ft 155 kts 36°
2026-04-25 14:58 43.44958 16.34071 2760 ft 156 kts 37°
2026-04-25 14:59 43.45808 16.34994 2715 ft 156 kts 36°
2026-04-25 14:59 43.46655 16.35924 2628 ft 156 kts 39°
2026-04-25 14:59 43.47406 16.37008 2524 ft 156 kts 47°
2026-04-25 14:59 43.48135 16.38117 2431 ft 153 kts 45°
2026-04-25 15:00 43.48923 16.39081 2349 ft 151 kts 32°
2026-04-25 15:00 43.49852 16.39748 2281 ft 151 kts 19°
2026-04-25 15:00 43.50854 16.40138 2232 ft 151 kts
2026-04-25 15:00 43.51899 16.40319 2169 ft 150 kts
2026-04-25 15:01 43.52929 16.40341 2076 ft 149 kts 354°
2026-04-25 15:01 43.53955 16.40147 2002 ft 148 kts 345°
2026-04-25 15:01 43.54912 16.39649 1910 ft 147 kts 325°
2026-04-25 15:01 43.55657 16.38694 1854 ft 145 kts 302°
2026-04-25 15:02 43.56084 16.37455 1785 ft 145 kts 287°
2026-04-25 15:02 43.56311 16.36104 1616 ft 144 kts 276°
2026-04-25 15:02 43.56361 16.34744 1301 ft 143 kts 263°
2026-04-25 15:02 43.56043 16.33498 892 ft 140 kts 233°
2026-04-25 15:03 43.55413 16.32489 497 ft 135 kts 228°
2026-04-25 15:03 43.54841 16.31493 210 ft 133 kts 230°
2026-04-25 15:03 43.54277 16.30487 59 ft 127 kts 232°
2026-04-25 15:03 43.53895 16.29798 67 ft 50 kts 231°
2026-04-25 15:04 43.53729 16.29508 69 ft 15 kts 219°
2026-04-25 15:04 43.53687 16.29565 66 ft 12 kts 95°
2026-04-25 15:04 43.53618 16.29601 63 ft 12 kts 167°
2026-04-25 15:04 43.53539 16.29671 59 ft 14 kts 144°
2026-04-25 15:05 43.53497 16.29742 55 ft 8 kts 115°
2026-04-25 15:05 43.53503 16.29759 55 ft 1 kts 315°
2026-04-25 15:05 43.53504 16.29755 55 ft 0 kts 285°